#timestamp,LO_Frequency,Hit,StdDev 
1504555215.7,286043290.6,Y,0.0
1504555235.5,286046999.9,P,0.3
1504555255.4,286047000.0,N,0.2
1504555275.2,286047000.4,N,0.2
1504555295.0,286046999.9,N,0.2
1504555296.0,286046999.9,N,0.2
1504555315.8,286047000.0,N,0.2
1504555335.6,286047000.7,Y,0.0
1504555355.5,286047000.4,P,0.2
1504555375.3,286047000.7,P,0.3
1504555395.1,286047000.9,P,0.3
1504555415.9,286046999.8,N,0.4
1504555435.7,286047002.8,Y,0.0
1504555455.5,286047000.1,P,0.1
1504555475.4,286047002.2,P,0.9
1504555495.2,286047001.8,N,0.9
1504555515.0,286047002.0,N,0.9
1504555515.9,286047002.0,N,0.8
1504555535.8,286046999.7,N,1.0
1504555555.6,286047001.6,N,0.9
1504555575.4,286047001.6,N,0.9
1504555595.3,286047003.7,Y,0.0
1504555615.1,286047002.0,P,0.4
1504555635.8,286047001.4,P,0.3
1504555655.7,286047002.5,P,0.5
1504555675.5,286047001.6,Y,0.0
1504555695.4,286047002.8,P,0.5
1504555715.2,286047002.7,P,0.5
1504555735.0,286046999.8,N,1.2
1504555735.9,286046999.8,N,1.3
1504555755.8,286046999.9,N,1.3
1504555775.6,286046999.9,N,1.3
1504555795.4,286047000.0,N,1.3
1504555815.3,286047000.6,N,1.2
1504555835.1,286047002.3,N,1.2
1504555836.0,286047002.3,N,1.2
1504555855.8,286047000.2,N,1.2
1504555875.7,286047002.7,N,1.2
1504555895.5,286047000.7,N,1.2
1504555915.3,286047001.2,N,1.2
1504555935.2,286047001.1,N,1.1
1504555955.9,286047001.2,N,1.1
1504555975.7,286047001.0,N,1.1
1504555995.6,286047000.2,N,1.0
1504556015.4,286047000.1,N,1.0
1504556035.2,286047000.2,N,1.0
1504556055.1,286047000.7,N,1.0
1504556056.0,286047000.7,N,1.0
1504556075.8,286046998.2,N,1.1
1504556095.6,286046998.7,N,1.2
1504556115.5,286046998.3,N,1.2
1504556135.3,286046999.6,N,1.2
1504556155.1,286046996.9,N,1.4
1504556175.9,286046999.6,N,1.4
1504556195.7,286046999.2,N,1.4
1504556215.5,286046996.7,N,1.5
1504556235.4,286046996.7,N,1.6
1504556255.2,286046997.0,N,1.6
1504556275.0,286046995.4,N,1.8
1504556276.0,286046995.4,N,1.9
1504556295.8,286046995.2,N,2.1
1504556315.6,286046995.1,N,2.2
1504556335.5,286046995.4,N,2.3
1504556355.3,286046996.8,N,2.3
1504556375.1,286046997.3,N,2.3
1504556395.9,286046997.9,N,2.2
1504556415.7,286046995.3,N,2.2
1504556435.5,286046995.4,N,2.1
1504556455.4,286046995.2,N,2.2
1504556475.2,286046993.5,Y,0.0
1504556495.0,286046997.9,P,0.1
1504556495.9,286046997.9,P,0.1
1504556515.8,286046997.4,P,0.2
1504556535.6,286046995.5,Y,0.0
1504556555.4,286046997.1,P,0.4
1504556575.3,286046997.7,P,0.3
1504556595.1,286046999.6,N,0.9
1504556615.8,286046996.7,Y,0.0
1504556635.7,286046998.6,P,0.3
1504556655.5,286046998.1,P,0.2
1504556675.3,286046998.6,P,0.3
1504556695.2,286046998.2,Y,0.0
1504556715.0,286047000.0,P,0.8
1504556715.9,286047000.0,N,0.8
1504556735.8,286047000.2,N,0.8
1504556755.6,286047002.4,Y,0.0
1504556775.4,286047000.2,P,0.3
1504556795.3,286046998.1,P,0.9
1504556815.1,286046999.9,N,0.8
1504556816.0,286046999.9,N,0.7
1504556835.8,286046999.7,N,0.7
1504556855.7,286046999.8,N,0.6
1504556875.5,286047000.3,N,0.6
1504556895.3,286046998.1,Y,0.0
1504556915.2,286047001.1,P,0.7
1504556935.9,286047000.8,N,0.6
1504556955.7,286047000.7,N,0.5
1504556975.6,286046998.2,Y,0.0
1504556995.4,286046998.7,P,0.9
1504557015.2,286046999.4,N,0.8
1504557035.1,286046999.6,N,0.7
1504557036.0,286046999.6,N,0.6
1504557055.8,286046998.6,N,0.7
1504557075.6,286046999.0,N,0.6
1504557095.5,286046998.7,N,0.6
1504557115.3,286046999.0,N,0.6
1504557135.1,286046999.4,N,0.6
1504557155.9,286046998.9,N,0.5
1504557175.7,286046998.1,Y,0.0
1504557195.5,286047000.6,P,0.7
1504557215.4,286046999.7,N,0.6
1504557235.2,286047002.4,P,1.2
1504557255.0,286047000.2,N,1.1
1504557256.0,286047000.2,N,1.0
1504557275.8,286046998.1,N,1.2
1504557295.6,286046998.1,N,1.3
1504557315.5,286047001.2,N,1.3
1504557335.3,286047001.2,N,1.3
1504557355.1,286047000.7,N,1.3
1504557375.9,286047000.7,N,1.2
1504557395.7,286047000.8,N,1.2
1504557415.5,286047001.1,N,1.2
1504557435.4,286047000.7,N,1.1
1504557455.2,286046998.7,N,1.2
1504557475.0,286046996.9,N,1.4
1504557475.9,286046996.9,N,1.5
1504557495.8,286046997.7,N,1.5
1504557515.6,286046997.5,N,1.6
1504557535.4,286046996.9,N,1.6
1504557555.3,286046996.9,N,1.7
1504557575.1,286046996.9,N,1.7
1504557576.0,286046996.9,N,1.8
1504557595.8,286046996.6,N,1.8
1504557615.7,286046999.2,N,1.8
1504557635.5,286046998.6,N,1.7
1504557655.3,286046999.3,N,1.7
1504557675.2,286046998.5,N,1.7
1504557695.9,286046998.5,N,1.7
1504557715.7,286046998.5,N,1.7
1504557735.6,286046998.6,N,1.6
1504557755.4,286047001.1,N,1.7
1504557775.2,286046998.2,N,1.6
1504557795.1,286046998.1,N,1.5
1504557796.0,286046998.1,N,1.5
1504557815.8,286046998.5,N,1.5
1504557835.6,286046998.4,N,1.5
1504557855.5,286046999.4,N,1.4
1504557875.3,286046998.8,N,1.4
1504557895.1,286046998.7,N,1.3
1504557915.9,286047000.7,N,1.3
1504557935.7,286046998.5,N,1.2
1504557955.5,286047000.4,N,1.2
1504557975.4,286047000.1,N,1.2
1504557995.2,286047000.4,N,1.2
1504558015.0,286047002.8,N,1.4
1504558016.0,286047002.8,N,1.6
1504558035.8,286047002.7,N,1.7
1504558055.6,286046999.8,N,1.7
1504558075.5,286046999.8,N,1.6
1504558095.3,286047002.7,N,1.7
1504558115.1,286047002.6,N,1.7
1504558135.9,286046999.8,N,1.6
1504558155.7,286047002.6,N,1.6
1504558175.5,286047002.6,N,1.7
1504558195.4,286047002.0,N,1.7
1504558215.2,286047001.8,N,1.7
1504558235.0,286047003.8,N,1.8
1504558235.9,286047003.8,N,1.9
1504558255.8,286047003.7,N,1.9
1504558275.6,286047003.6,N,1.9
1504558295.4,286047004.3,N,2.0
1504558315.3,286047004.1,N,2.0
1504558335.1,286047003.2,N,2.0
1504558336.0,286047003.2,N,1.9
1504558355.8,286047003.8,N,1.9
1504558375.7,286047003.0,N,1.8
1504558395.5,286047004.2,N,1.8
1504558415.3,286047002.0,N,1.7
1504558435.2,286047001.4,N,1.6
1504558455.0,286047004.4,N,1.6
1504558455.9,286047004.4,N,1.5
1504558475.7,286047002.6,N,1.4
1504558495.6,286047002.1,N,1.3
1504558515.4,286047002.2,N,1.3
1504558535.2,286047002.3,N,1.3
1504558555.1,286047001.5,N,1.3
1504558556.0,286047001.5,N,1.3
1504558575.8,286046999.8,N,1.3
1504558595.7,286047001.3,N,1.2
1504558615.5,286047004.3,Y,0.0
1504558635.3,286047001.1,P,0.8
1504558655.2,286046998.5,N,1.7
1504558675.0,286047001.2,N,1.5
1504558675.9,286047001.2,N,1.4
1504558695.8,286046998.2,N,1.6
1504558715.6,286047001.2,N,1.5
1504558735.4,286047001.2,N,1.4
1504558755.3,286047000.8,N,1.3
1504558775.1,286047000.0,N,1.3
1504558795.9,286047000.5,N,1.2
